カタログに戻る

STARLINK-35308

運用中通信VLEO
NORAD 65848·PAYLOAD·🇺🇸 United States

打ち上げ Sep 29, 2025 から Vandenberg Space Force Base

Loading…

次のパス (今後24時間)

TLE

最新Source: CelesTrak SupGP

元期: Sep 14, 2026, 20:48 UTC

1 65848C 25221AB  26257.86715278  .00026190  00000+0  77391-3 0  2573
2 65848  53.1579 285.9092 0001116  87.9630 133.9841 15.34372630    14

AllMySatでSTARLINK-35308をリアルタイム追跡

Download on the App Store